Regional Weather Roundup
Issued by NWS Bismarck, ND

Home | Current Version | Previous Version | Text Only | Print | Product List | Glossary On
Versions: 1 2 3 4 5 6 7 8 9 10 11 12 13 14 15 16 17 18 19 20 21 22 23 24 25 26 27 28 29 30 31 32 33 34 35 36 37 38 39 40 41 42 43 44 45 46 47 48 49 50
000
ASUS43 KBIS 011610
RWRBIS

NWR BROADCAST TEXT
NATIONAL WEATHER SERVICE BISMARCK ND
1100 AM CDT SAT AUG 01 2015

NOTE: "FAIR" INDICATES FEW OR NO CLOUDS BELOW 12,000 FEET WITH NO
SIGNIFICANT WEATHER AND/OR OBSTRUCTIONS TO VISIBILITY.


CITY           SKY/WX    TMP DP  RH WIND       PRES   REMARKS
WILLISTON      SUNNY     77  57  50 SW6       29.90F
MINOT          SUNNY     77  53  43 SE6       29.88F
MINOT AFB      SUNNY     77  56  47 SE9       29.87F
BISMARCK       SUNNY     80  59  48 S5        29.88S
DICKINSON      SUNNY     79  53  40 N8        29.92F
GARRISON         N/A     76  57  51 E8        29.89F
HETTINGER ARPT SUNNY     85  48  27 NW15      29.95S
JAMESTOWN      SUNNY     77  60  55 SE12      29.90F
CROSBY         FAIR      77  57  50 S12       29.90F
HARVEY         FAIR      77  59  53 SE6       29.90S
HAZEN          FAIR      77  54  44 W3        29.89F
LINTON         FAIR      82  66  57 S14       29.88F
OAKES            N/A     81  63  54 E10       29.91F
STANLEY        FAIR      77  57  50 SE10      29.92F
$$

CITY           SKY/WX    TMP DP  RH WIND       PRES   REMARKS
GRAND FORKS    MOSUNNY   78  53  41 SW9       29.88F
GRAND FORKS AF SUNNY     78  54  42 S9        29.89F
DEVILS LAKE    SUNNY     75  54  46 SE8       29.88F
FARGO          SUNNY     78  51  38 VRB5      29.92F
CAVALIER       FAIR      75  54  46 SW7       29.87F
GRAFTON        FAIR      77  55  47 SW5       29.88F
GWINNER        FAIR      79  63  57 SE9       29.93F
LANGDON        FAIR      77  54  44 SW9G15    29.90F
ROLLA            N/A     72  57  60 SW13      29.90F
WALHALLA       FAIR      75  54  46 MISG      29.87F
$$

CITY           SKY/WX    TMP DP  RH WIND       PRES   REMARKS
ABERDEEN       PTSUNNY   80  65  59 S8        29.91F
MOBRIDGE       SUNNY     81  67  62 S8        29.88F
BUFFALO          N/A     89  37  16 NW14      29.91F
RAPID CITY     SUNNY     81  58  45 S8        30.03S
GLASGOW        SUNNY     78  52  40 SE10      29.89F
SIDNEY         SUNNY    N/A N/A N/A S8        29.90F
WOLF POINT     SUNNY     77  54  44 CALM      29.91F
GLENDIVE       SUNNY     75  54  46 CALM      29.96F
MILES CITY     SUNNY     83  44  25 W5        29.97F
BAKER          SUNNY     86  45  23 NW14      29.99R
$$

CITY           SKY/WX    TMP DP  RH WIND       PRES   REMARKS
BILLINGS       MOSUNNY   74  40  29 SW14      30.07S
GREAT FALLS    SUNNY     82  38  20 SW12      30.03F
REGINA         MOSUNNY   79  57  47 VRB2      29.87F
$$



USA.gov is the U.S. government's official web portal to all federal, state and local government web resources and services.